CDT,Max TemperatureF,Mean TemperatureF,Min TemperatureF,Max Dew PointF,MeanDew PointF,Min DewpointF,Max Humidity, Mean Humidity, Min Humidity, Max Sea Level PressureIn, Mean Sea Level PressureIn, Min Sea Level PressureIn, Max VisibilityMiles, Mean VisibilityMiles, Min VisibilityMiles, Max Wind SpeedMPH, Mean Wind SpeedMPH, Max Gust SpeedMPH,PrecipitationIn, CloudCover, Events, WindDirDegrees
2013-3-1,32,25,18,22,20,14,84,77,69,30.37,30.28,30.21,10,6,2,21,12,24,T,7,Snow,332
2013-3-2,34,26,17,22,18,14,84,69,54,30.40,30.34,30.22,10,8,5,14,6,17,0.00,5,,343
2013-3-3,42,33,24,29,25,18,81,67,53,30.19,29.96,29.74,10,7,5,17,10,21,0.00,0,,126
2013-3-4,51,42,33,33,31,27,85,69,53,30.01,29.80,29.68,10,7,3,21,9,29,T,3,Rain,26
2013-3-5,40,33,26,30,20,16,76,62,48,30.41,30.24,30.03,10,10,5,30,17,38,T,4,,320
2013-3-6,38,29,19,22,19,16,81,67,52,30.47,30.40,30.30,10,9,7,14,6,17,0.00,2,,69
2013-3-7,52,38,23,32,25,18,81,62,42,30.32,30.23,30.13,8,7,5,18,9,22,0.00,0,,111
2013-3-8,62,48,33,43,36,27,82,64,46,30.21,30.11,29.96,8,6,5,20,13,24,T,4,,123
2013-3-9,58,53,48,55,49,39,93,76,59,29.95,29.71,29.59,6,3,0,18,8,22,0.97,8,Fog-Rain-Thunderstorm,126
2013-3-10,55,42,28,50,37,21,100,88,75,29.96,29.72,29.57,9,4,1,28,14,32,0.01,7,Rain,335
2013-3-11,40,33,26,25,21,19,85,65,44,30.05,29.98,29.92,10,9,7,20,10,23,0.00,4,,295
2013-3-12,51,38,25,28,23,20,85,59,32,30.38,30.22,30.05,10,9,6,29,10,37,0.00,2,,316
2013-3-13,46,31,16,24,19,13,88,60,31,30.52,30.42,30.33,10,9,5,12,5,15,0.00,1,,136
2013-3-14,73,52,30,39,32,23,79,55,31,30.32,30.15,30.05,10,9,4,18,6,23,0.00,0,,218
2013-3-15,86,59,31,48,37,28,92,54,16,30.08,29.83,29.65,10,9,6,20,7,25,0.00,0,,225
2013-3-16,54,46,37,43,33,27,82,68,53,30.09,29.97,29.73,10,7,3,23,12,29,0.00,5,,15
2013-3-17,38,36,33,33,30,26,96,80,64,30.08,29.90,29.77,10,5,1,18,10,23,0.18,8,Rain,77
2013-3-18,56,42,28,36,30,17,92,59,26,30.08,29.87,29.75,10,6,1,25,11,31,T,5,Rain,319
2013-3-19,40,31,22,36,29,16,96,77,58,30.29,30.24,30.12,10,3,0,7,1,9,0.15,6,Fog-Snow,135
2013-3-20,43,31,19,29,16,8,92,58,24,30.45,30.32,30.16,10,8,0,26,11,33,0.00,2,Fog,334
2013-3-21,31,25,19,27,21,13,92,71,50,30.15,30.00,29.91,10,5,1,21,9,24,T,7,Snow,100
2013-3-22,35,33,30,32,29,27,92,87,82,30.04,29.98,29.95,6,3,1,12,6,13,0.00,8,,66
2013-3-23,39,36,32,32,30,27,96,78,59,30.06,29.95,29.90,5,2,0,23,10,32,0.28,8,Fog-Snow,39
2013-3-24,32,26,20,29,24,15,92,78,63,30.13,29.96,29.86,8,2,0,32,20,37,0.05,7,Fog-Snow,344
2013-3-25,34,26,17,27,21,12,85,73,61,30.39,30.23,30.09,10,7,1,29,14,33,T,7,Snow,316
2013-3-26,38,27,15,22,19,14,84,66,48,30.45,30.39,30.33,10,10,9,13,5,15,0.00,0,,295
2013-3-27,51,38,25,33,27,19,81,62,42,30.34,30.27,30.21,10,9,7,21,9,25,0.00,4,,107
2013-3-28,65,50,34,40,35,29,82,59,36,30.24,30.19,30.13,10,8,6,13,6,16,0.00,1,,92
2013-3-29,71,56,41,42,39,35,80,54,28,30.22,30.16,30.09,10,8,4,17,8,22,0.00,1,,104
2013-3-30,72,61,49,55,50,44,89,67,44,30.07,29.94,29.85,10,8,2,16,6,20,0.04,6,Rain,355
2013-3-31,68,53,37,45,38,26,86,56,26,29.99,29.96,29.94,10,9,4,21,9,28,T,3,Rain,324